AAL1080 KABQ-KDFW

Flight info

Callsign AAL1080
Flight time 1h 11m
Altitude 37000
Route MNZNO3 TXO TURKI VKTRY2
Aircraft B738/M-SDE2E3FGHIRWXY/LB1

Departure

Time 2026-05-04 00:32
Airport Albuquerque International Sunport (KABQ)

Arrival

Time 2026-05-04 01:43
Airport Dallas Fort Worth International Airport (KDFW)
Time Latitude Longitude Altitude Speed Heading
2026-05-04 00:05 35.04696 -106.61736 5320 ft 0 kts 24°
2026-05-04 00:23 35.04680 -106.61744 5312 ft 4 kts 19°
2026-05-04 00:23 35.04655 -106.61752 5311 ft 4 kts
2026-05-04 00:23 35.04630 -106.61748 5321 ft 4 kts 319°
2026-05-04 00:23 35.04623 -106.61734 5318 ft 1 kts 270°
2026-05-04 00:24 35.04623 -106.61731 5321 ft 0 kts 270°
2026-05-04 00:26 35.04623 -106.61733 5321 ft 1 kts 270°
2026-05-04 00:26 35.04623 -106.61740 5321 ft 1 kts 269°
2026-05-04 00:26 35.04612 -106.61769 5318 ft 8 kts 228°
2026-05-04 00:26 35.04565 -106.61806 5317 ft 8 kts 224°
2026-05-04 00:27 35.04553 -106.61869 5321 ft 8 kts 269°
2026-05-04 00:27 35.04553 -106.61943 5313 ft 9 kts 271°
2026-05-04 00:27 35.04555 -106.62014 5313 ft 8 kts 272°
2026-05-04 00:27 35.04556 -106.62084 5320 ft 8 kts 269°
2026-05-04 00:28 35.04532 -106.62138 5317 ft 7 kts 199°
2026-05-04 00:28 35.04523 -106.62139 5315 ft 0 kts 180°
2026-05-04 00:30 35.04521 -106.62139 5318 ft 2 kts 180°
2026-05-04 00:30 35.04488 -106.62138 5317 ft 7 kts 175°
2026-05-04 00:30 35.04440 -106.62099 5313 ft 11 kts 116°
2026-05-04 00:31 35.04434 -106.61912 5319 ft 49 kts 90°
2026-05-04 00:31 35.04429 -106.61213 5313 ft 114 kts 90°
2026-05-04 00:31 35.04417 -106.60007 5322 ft 168 kts 92°
2026-05-04 00:31 35.04372 -106.58500 5757 ft 181 kts 92°
2026-05-04 00:32 35.04284 -106.56935 6403 ft 190 kts 107°
2026-05-04 00:32 35.03755 -106.55443 7102 ft 190 kts 124°
2026-05-04 00:32 35.02906 -106.54201 7806 ft 196 kts 141°
2026-05-04 00:32 35.01760 -106.53293 8442 ft 201 kts 154°
2026-05-04 00:33 35.00483 -106.52404 8630 ft 225 kts 151°
2026-05-04 00:33 34.97334 -106.51063 8932 ft 262 kts 184°
2026-05-04 00:33 34.95404 -106.51217 8987 ft 287 kts 186°
2026-05-04 00:34 34.93412 -106.51387 9029 ft 293 kts 185°
2026-05-04 00:34 34.91364 -106.51512 9610 ft 297 kts 185°
2026-05-04 00:34 34.89300 -106.51617 10492 ft 297 kts 185°
2026-05-04 00:34 34.87223 -106.51692 11297 ft 300 kts 184°
2026-05-04 00:35 34.85116 -106.51744 12100 ft 304 kts 184°
2026-05-04 00:35 34.83000 -106.51452 12840 ft 314 kts 162°
2026-05-04 00:35 34.81162 -106.50055 13607 ft 323 kts 136°
2026-05-04 00:35 34.79903 -106.47661 13885 ft 349 kts 108°
2026-05-04 00:36 34.79424 -106.44676 14146 ft 369 kts 97°
2026-05-04 00:36 34.79100 -106.41521 14698 ft 379 kts 96°
2026-05-04 00:36 34.78789 -106.38326 15379 ft 383 kts 97°
2026-05-04 00:36 34.78455 -106.35105 16072 ft 387 kts 97°
2026-05-04 00:37 34.78095 -106.31839 16758 ft 390 kts 97°
2026-05-04 00:37 34.77717 -106.28559 17374 ft 395 kts 98°
2026-05-04 00:37 34.77322 -106.25227 17964 ft 400 kts 98°
2026-05-04 00:37 34.76921 -106.21875 18595 ft 404 kts 98°
2026-05-04 00:38 34.76515 -106.18492 19199 ft 408 kts 98°
2026-05-04 00:38 34.76101 -106.15055 19705 ft 415 kts 98°
2026-05-04 00:38 34.75683 -106.11551 20241 ft 420 kts 97°
2026-05-04 00:38 34.75422 -106.08006 20755 ft 424 kts 92°
2026-05-04 00:39 34.75303 -106.04443 21237 ft 429 kts 90°
2026-05-04 00:39 34.75232 -106.00758 21745 ft 433 kts 90°
2026-05-04 00:39 34.75169 -105.97077 22210 ft 438 kts 90°
2026-05-04 00:39 34.75093 -105.93384 22690 ft 442 kts 90°
2026-05-04 00:40 34.74999 -105.89596 23144 ft 447 kts 90°
2026-05-04 00:40 34.74892 -105.85858 23582 ft 451 kts 91°
2026-05-04 00:40 34.74772 -105.82011 23994 ft 456 kts 91°
2026-05-04 00:40 34.74649 -105.78236 24401 ft 460 kts 91°
2026-05-04 00:41 34.74515 -105.74232 24814 ft 465 kts 91°
2026-05-04 00:41 34.74382 -105.70319 25177 ft 469 kts 91°
2026-05-04 00:41 34.74245 -105.66320 25565 ft 474 kts 91°
2026-05-04 00:41 34.74106 -105.62301 25976 ft 477 kts 91°
2026-05-04 00:42 34.73966 -105.58279 26307 ft 482 kts 91°
2026-05-04 00:42 34.73823 -105.54189 26627 ft 486 kts 91°
2026-05-04 00:42 34.73677 -105.50046 26995 ft 489 kts 91°
2026-05-04 00:42 34.73528 -105.45888 27343 ft 493 kts 91°
2026-05-04 00:43 34.73379 -105.41740 27664 ft 497 kts 91°
2026-05-04 00:43 34.73225 -105.37490 27978 ft 501 kts 91°
2026-05-04 00:43 34.73070 -105.33244 28283 ft 505 kts 91°
2026-05-04 00:43 34.72912 -105.28974 28573 ft 508 kts 92°
2026-05-04 00:44 34.72751 -105.24673 28868 ft 511 kts 92°
2026-05-04 00:44 34.72586 -105.20337 29155 ft 515 kts 92°
2026-05-04 00:44 34.72421 -105.15972 29417 ft 519 kts 92°
2026-05-04 00:44 34.72255 -105.11645 29693 ft 522 kts 92°
2026-05-04 00:45 34.72086 -105.07271 29946 ft 525 kts 92°
2026-05-04 00:45 34.71907 -105.02696 30223 ft 528 kts 92°
2026-05-04 00:45 34.71733 -104.98306 30448 ft 531 kts 92°
2026-05-04 00:45 34.71553 -104.93798 30691 ft 534 kts 92°
2026-05-04 00:46 34.71371 -104.89288 30981 ft 536 kts 92°
2026-05-04 00:46 34.71188 -104.84770 31233 ft 538 kts 92°
2026-05-04 00:46 34.71002 -104.80208 31454 ft 541 kts 92°
2026-05-04 00:46 34.70814 -104.75651 31734 ft 542 kts 92°
2026-05-04 00:47 34.70623 -104.71060 32073 ft 541 kts 92°
2026-05-04 00:47 34.70432 -104.66519 32389 ft 541 kts 92°
2026-05-04 00:47 34.70226 -104.61948 32658 ft 542 kts 93°
2026-05-04 00:47 34.69868 -104.57369 32915 ft 543 kts 96°
2026-05-04 00:48 34.69382 -104.52838 33195 ft 544 kts 97°
2026-05-04 00:48 34.69022 -104.49818 33373 ft 544 kts 98°
2026-05-04 00:48 34.68461 -104.45267 33636 ft 545 kts 98°
2026-05-04 00:48 34.67904 -104.40715 33926 ft 544 kts 98°
2026-05-04 00:49 34.67364 -104.36173 34233 ft 544 kts 97°
2026-05-04 00:49 34.66838 -104.31603 34473 ft 545 kts 97°
2026-05-04 00:49 34.66324 -104.27043 34702 ft 545 kts 97°
2026-05-04 00:49 34.65817 -104.22489 34954 ft 545 kts 97°
2026-05-04 00:50 34.65307 -104.17912 35205 ft 545 kts 97°
2026-05-04 00:50 34.64798 -104.13358 35473 ft 545 kts 97°
2026-05-04 00:50 34.64287 -104.08803 35719 ft 544 kts 97°
2026-05-04 00:50 34.63773 -104.04253 35982 ft 544 kts 97°
2026-05-04 00:51 34.63256 -103.99704 36258 ft 543 kts 97°
2026-05-04 00:51 34.62738 -103.95171 36539 ft 541 kts 97°
2026-05-04 00:51 34.62218 -103.90642 36775 ft 541 kts 97°
2026-05-04 00:51 34.61699 -103.86128 37014 ft 540 kts 97°
2026-05-04 00:52 34.61175 -103.81591 36984 ft 543 kts 97°
2026-05-04 00:52 34.60132 -103.72589 36986 ft 535 kts 97°
2026-05-04 00:53 34.59098 -103.63725 36995 ft 529 kts 97°
2026-05-04 00:53 34.58060 -103.54883 37009 ft 530 kts 97°
2026-05-04 00:54 34.57019 -103.46069 37013 ft 530 kts 97°
2026-05-04 00:54 34.55966 -103.37215 37012 ft 531 kts 97°
2026-05-04 00:55 34.54904 -103.28334 37012 ft 532 kts 97°
2026-05-04 00:55 34.53833 -103.19440 37021 ft 533 kts 97°
2026-05-04 00:56 34.52754 -103.10534 37027 ft 534 kts 98°
2026-05-04 00:56 34.51670 -103.01641 37033 ft 534 kts 97°
2026-05-04 00:57 34.50579 -102.92747 37042 ft 534 kts 97°
2026-05-04 00:57 34.49481 -102.83844 37039 ft 534 kts 97°
2026-05-04 00:58 34.48503 -102.74915 37023 ft 533 kts 95°
2026-05-04 00:58 34.47626 -102.66019 37025 ft 532 kts 95°
2026-05-04 00:59 34.46735 -102.57125 37020 ft 531 kts 96°
2026-05-04 00:59 34.45816 -102.48243 37018 ft 530 kts 96°
2026-05-04 01:00 34.44882 -102.39369 37009 ft 530 kts 96°
2026-05-04 01:00 34.43951 -102.30581 37009 ft 529 kts 96°
2026-05-04 01:01 34.43011 -102.21759 37008 ft 529 kts 96°
2026-05-04 01:01 34.42064 -102.12928 37010 ft 529 kts 96°
2026-05-04 01:02 34.41112 -102.04102 37009 ft 529 kts 96°
2026-05-04 01:02 34.40152 -101.95269 37011 ft 529 kts 96°
2026-05-04 01:03 34.39185 -101.86442 37010 ft 529 kts 96°
2026-05-04 01:03 34.38214 -101.77617 37008 ft 529 kts 96°
2026-05-04 01:04 34.37235 -101.68799 37011 ft 529 kts 96°
2026-05-04 01:04 34.36250 -101.59970 37007 ft 529 kts 96°
2026-05-04 01:05 34.35259 -101.51157 37010 ft 529 kts 96°
2026-05-04 01:05 34.34258 -101.42310 37008 ft 529 kts 96°
2026-05-04 01:06 34.33254 -101.33491 37000 ft 530 kts 96°
2026-05-04 01:06 34.32242 -101.24659 37001 ft 530 kts 96°
2026-05-04 01:07 34.31225 -101.15834 36999 ft 530 kts 96°
2026-05-04 01:07 34.30202 -101.07021 36992 ft 529 kts 96°
2026-05-04 01:08 34.29175 -100.98247 36989 ft 529 kts 96°
2026-05-04 01:08 34.28132 -100.89393 36989 ft 528 kts 96°
2026-05-04 01:09 34.27093 -100.80607 36982 ft 528 kts 96°
2026-05-04 01:09 34.26055 -100.71887 36970 ft 527 kts 96°
2026-05-04 01:10 34.24998 -100.63066 36975 ft 526 kts 96°
2026-05-04 01:10 34.23943 -100.54313 36969 ft 526 kts 96°
2026-05-04 01:11 34.22882 -100.45567 36974 ft 526 kts 96°
2026-05-04 01:11 34.21823 -100.36889 36962 ft 526 kts 96°
2026-05-04 01:12 34.20750 -100.28140 36963 ft 526 kts 96°
2026-05-04 01:12 34.18984 -100.19584 36981 ft 527 kts 110°
2026-05-04 01:13 34.16346 -100.11332 36966 ft 527 kts 112°
2026-05-04 01:13 34.13687 -100.03080 36975 ft 527 kts 111°
2026-05-04 01:14 34.11138 -99.94797 36971 ft 527 kts 110°
2026-05-04 01:14 34.09670 -99.89942 36969 ft 527 kts 110°
2026-05-04 01:15 34.08415 -99.85784 36978 ft 528 kts 110°
2026-05-04 01:15 34.05886 -99.77457 36989 ft 529 kts 110°
2026-05-04 01:16 34.03364 -99.69202 36893 ft 530 kts 110°
2026-05-04 01:16 34.02080 -99.65012 36392 ft 533 kts 111°
2026-05-04 01:16 34.00801 -99.60843 35856 ft 530 kts 111°
2026-05-04 01:16 33.99519 -99.56668 35260 ft 531 kts 111°
2026-05-04 01:17 33.98238 -99.52497 34644 ft 532 kts 111°
2026-05-04 01:17 33.96950 -99.48315 34012 ft 532 kts 111°
2026-05-04 01:17 33.95655 -99.44128 33387 ft 533 kts 111°
2026-05-04 01:17 33.94358 -99.39954 32731 ft 534 kts 111°
2026-05-04 01:18 33.93051 -99.35759 32147 ft 533 kts 111°
2026-05-04 01:18 33.91755 -99.31608 31681 ft 528 kts 110°
2026-05-04 01:18 33.90465 -99.27478 31200 ft 524 kts 110°
2026-05-04 01:18 33.89186 -99.23387 30719 ft 520 kts 110°
2026-05-04 01:19 33.87915 -99.19329 30239 ft 517 kts 110°
2026-05-04 01:19 33.86651 -99.15294 29767 ft 513 kts 110°
2026-05-04 01:19 33.85403 -99.11314 29293 ft 508 kts 110°
2026-05-04 01:19 33.84162 -99.07358 28807 ft 503 kts 111°
2026-05-04 01:20 33.82929 -99.03438 28323 ft 498 kts 111°
2026-05-04 01:20 33.81712 -98.99570 27850 ft 493 kts 110°
2026-05-04 01:20 33.80503 -98.95729 27382 ft 488 kts 111°
2026-05-04 01:20 33.79305 -98.91935 26929 ft 482 kts 111°
2026-05-04 01:21 33.78123 -98.88193 26466 ft 477 kts 111°
2026-05-04 01:21 33.76950 -98.84486 25999 ft 471 kts 111°
2026-05-04 01:21 33.75793 -98.80830 25551 ft 466 kts 111°
2026-05-04 01:21 33.74643 -98.77203 25088 ft 461 kts 111°
2026-05-04 01:22 33.73521 -98.73677 24659 ft 455 kts 111°
2026-05-04 01:22 33.72390 -98.70149 24207 ft 450 kts 111°
2026-05-04 01:22 33.71270 -98.66661 23756 ft 445 kts 111°
2026-05-04 01:22 33.70163 -98.63214 23299 ft 440 kts 111°
2026-05-04 01:23 33.69070 -98.59803 22850 ft 435 kts 111°
2026-05-04 01:23 33.67996 -98.56431 22424 ft 430 kts 111°
2026-05-04 01:23 33.66942 -98.53099 22005 ft 425 kts 111°
2026-05-04 01:23 33.65899 -98.49800 21587 ft 420 kts 111°
2026-05-04 01:24 33.64869 -98.46545 21159 ft 415 kts 111°
2026-05-04 01:24 33.63848 -98.43327 20765 ft 410 kts 111°
2026-05-04 01:24 33.62837 -98.40146 20363 ft 405 kts 111°
2026-05-04 01:24 33.61838 -98.37007 19967 ft 401 kts 111°
2026-05-04 01:25 33.60851 -98.33907 19572 ft 396 kts 111°
2026-05-04 01:25 33.59871 -98.30834 19189 ft 392 kts 111°
2026-05-04 01:25 33.58902 -98.27798 18801 ft 387 kts 111°
2026-05-04 01:25 33.57945 -98.24800 18423 ft 383 kts 111°
2026-05-04 01:26 33.56999 -98.21842 18050 ft 378 kts 111°
2026-05-04 01:26 33.56059 -98.18907 17678 ft 374 kts 111°
2026-05-04 01:26 33.55129 -98.16018 17313 ft 370 kts 111°
2026-05-04 01:26 33.54206 -98.13157 16941 ft 366 kts 111°
2026-05-04 01:27 33.53290 -98.10317 16583 ft 363 kts 111°
2026-05-04 01:27 33.52385 -98.07512 16228 ft 359 kts 111°
2026-05-04 01:27 33.51499 -98.04770 15884 ft 357 kts 111°
2026-05-04 01:27 33.50603 -98.01997 15531 ft 356 kts 111°
2026-05-04 01:28 33.49708 -97.99231 15186 ft 357 kts 112°
2026-05-04 01:28 33.48811 -97.96460 14839 ft 356 kts 111°
2026-05-04 01:28 33.47916 -97.93701 14485 ft 355 kts 112°
2026-05-04 01:28 33.47029 -97.90960 14129 ft 350 kts 112°
2026-05-04 01:29 33.46158 -97.88253 13781 ft 346 kts 112°
2026-05-04 01:29 33.45300 -97.85586 13440 ft 342 kts 112°
2026-05-04 01:29 33.44452 -97.82949 13107 ft 338 kts 112°
2026-05-04 01:29 33.43611 -97.80336 12760 ft 335 kts 112°
2026-05-04 01:30 33.42774 -97.77739 12448 ft 333 kts 112°
2026-05-04 01:30 33.41943 -97.75162 12123 ft 330 kts 112°
2026-05-04 01:30 33.41120 -97.72615 11800 ft 328 kts 112°
2026-05-04 01:30 33.40299 -97.70070 11479 ft 325 kts 112°
2026-05-04 01:31 33.39497 -97.67590 11130 ft 315 kts 112°
2026-05-04 01:31 33.38715 -97.65178 10809 ft 306 kts 113°
2026-05-04 01:31 33.37785 -97.62942 10498 ft 296 kts 126°
2026-05-04 01:31 33.36600 -97.60975 10223 ft 288 kts 130°
2026-05-04 01:32 33.35388 -97.59094 9991 ft 284 kts 130°
2026-05-04 01:32 33.34195 -97.57246 9932 ft 283 kts 130°
2026-05-04 01:32 33.33006 -97.55371 9913 ft 274 kts 129°
2026-05-04 01:32 33.31892 -97.53587 9900 ft 261 kts 129°
2026-05-04 01:33 33.30839 -97.51888 9884 ft 249 kts 129°
2026-05-04 01:33 33.29836 -97.50262 9902 ft 239 kts 130°
2026-05-04 01:33 33.28854 -97.48677 9905 ft 236 kts 129°
2026-05-04 01:33 33.27868 -97.47076 9922 ft 241 kts 129°
2026-05-04 01:34 33.26844 -97.45505 9930 ft 244 kts 137°
2026-05-04 01:34 33.25596 -97.44124 9932 ft 243 kts 142°
2026-05-04 01:34 33.24295 -97.42804 9937 ft 242 kts 143°
2026-05-04 01:34 33.23029 -97.41522 9939 ft 242 kts 142°
2026-05-04 01:35 33.21744 -97.40219 9948 ft 242 kts 145°
2026-05-04 01:35 33.20234 -97.39370 9921 ft 236 kts 165°
2026-05-04 01:35 33.18832 -97.38397 9603 ft 248 kts 134°
2026-05-04 01:35 33.17764 -97.36689 8866 ft 263 kts 131°
2026-05-04 01:36 33.16529 -97.35010 8140 ft 272 kts 137°
2026-05-04 01:36 33.15168 -97.33434 7643 ft 271 kts 140°
2026-05-04 01:36 33.13779 -97.31931 7221 ft 268 kts 141°
2026-05-04 01:36 33.12391 -97.30463 6778 ft 266 kts 142°
2026-05-04 01:37 33.11177 -97.28806 6319 ft 270 kts 120°
2026-05-04 01:37 33.10501 -97.26718 5898 ft 269 kts 112°
2026-05-04 01:37 33.09890 -97.24621 5454 ft 267 kts 112°
2026-05-04 01:37 33.09274 -97.22535 5013 ft 266 kts 112°
2026-05-04 01:38 33.08661 -97.20474 4593 ft 263 kts 112°
2026-05-04 01:38 33.08054 -97.18436 4251 ft 257 kts 113°
2026-05-04 01:38 33.07460 -97.16461 3981 ft 250 kts 113°
2026-05-04 01:38 33.06884 -97.14550 3782 ft 240 kts 113°
2026-05-04 01:39 33.06328 -97.12712 3579 ft 230 kts 114°
2026-05-04 01:39 33.05806 -97.10989 3463 ft 215 kts 114°
2026-05-04 01:39 33.05312 -97.09356 3307 ft 200 kts 114°
2026-05-04 01:39 33.04848 -97.07825 3185 ft 195 kts 114°
2026-05-04 01:40 33.04337 -97.06344 3042 ft 192 kts 127°
2026-05-04 01:40 33.03330 -97.05447 2795 ft 176 kts 171°
2026-05-04 01:40 33.02555 -97.05358 2658 ft 163 kts 181°
2026-05-04 01:40 33.01481 -97.05371 2472 ft 146 kts 183°
2026-05-04 01:41 33.00496 -97.05406 2358 ft 140 kts 182°
2026-05-04 01:41 32.99176 -97.05424 2125 ft 145 kts 181°
2026-05-04 01:41 32.98173 -97.05430 1926 ft 143 kts 181°
2026-05-04 01:41 32.97506 -97.05434 1799 ft 141 kts 180°
2026-05-04 01:42 32.96528 -97.05439 1614 ft 143 kts 180°
2026-05-04 01:42 32.95540 -97.05444 1425 ft 141 kts 180°
2026-05-04 01:42 32.94556 -97.05451 1232 ft 142 kts 180°
2026-05-04 01:42 32.93563 -97.05453 1042 ft 142 kts 181°
2026-05-04 01:43 32.92575 -97.05461 827 ft 143 kts 180°
2026-05-04 01:43 32.91600 -97.05463 658 ft 140 kts 181°
2026-05-04 01:43 32.90679 -97.05467 612 ft 114 kts 180°
2026-05-04 01:43 32.90166 -97.05469 612 ft 32 kts 180°
2026-05-04 01:44 32.90047 -97.05453 602 ft 12 kts 161°
2026-05-04 01:44 32.89970 -97.05413 604 ft 8 kts 135°
2026-05-04 01:44 32.89964 -97.05395 610 ft 1 kts 99°
2026-05-04 01:44 32.89981 -97.05363 609 ft 8 kts 36°
2026-05-04 01:45 32.90060 -97.05317 603 ft 16 kts 29°
2026-05-04 01:45 32.90118 -97.05204 599 ft 18 kts 96°
2026-05-04 01:45 32.90116 -97.04916 598 ft 17 kts 91°
2026-05-04 01:46 32.90115 -97.04816 597 ft 11 kts 90°
2026-05-04 01:46 32.90080 -97.04758 597 ft 10 kts 180°
2026-05-04 01:46 32.90012 -97.04759 598 ft 9 kts 180°
2026-05-04 01:46 32.89951 -97.04760 597 ft 9 kts 180°
2026-05-04 01:47 32.89950 -97.04734 597 ft 5 kts
2026-05-04 01:47 32.89990 -97.04741 597 ft 9 kts 352°
2026-05-04 01:47 32.90063 -97.04757 597 ft 12 kts 351°
2026-05-04 01:47 32.90148 -97.04763 596 ft 14 kts
2026-05-04 01:48 32.90265 -97.04761 596 ft 19 kts
2026-05-04 01:48 32.90376 -97.04723 595 ft 17 kts 50°
2026-05-04 01:48 32.90411 -97.04656 595 ft 5 kts 53°
2026-05-04 01:48 32.90425 -97.04630 595 ft 0 kts 65°
2026-05-04 01:50 32.90429 -97.04617 595 ft 5 kts 73°
2026-05-04 01:50 32.90429 -97.04590 595 ft 1 kts 91°
2026-05-04 01:50 32.90429 -97.04579 595 ft 1 kts 91°
2026-05-04 01:51 32.90429 -97.04578 595 ft 0 kts 91°